Lexington Weather

Lexington, Massachusetts, USA

46°F
4/22/2024 9:41am 
  • Lexington Conditions: Clear
  • Temperature: 45.5°F / 7.5°CWarmer 2.3°F than last hour.
  • Dew Point: 24.8°FDecreased 2.0°Fsince last hour.
  • Relative Humidity: 44%Decreased 8.0% since last hour.
  • Wind: Calm, 10-min avg: Calm, gust: 5 mph
  • Barometer: 29.97 in Steady
  • Visibility: 10 miles
  • Rain Today: 0.00 in
  •   

Regional Weather Roundup
for Boston, MA

        
000
ASUS41 KBOX 200710
RWRBOX

REGIONAL WEATHER ROUNDUP
NATIONAL WEATHER SERVICE BOSTON/NORTON MA
300 AM EDT SAT APR 20 2024

NOTE:  "FAIR" INDICATES FEW OR NO CLOUDS BELOW 12,000 FEET WITH NO 
SIGNIFICANT WEATHER AND/OR OBSTRUCTIONS TO VISIBILITY.

MAZALL-200800-
EASTERN MASSACHUSETTS
  
CITY           SKY/WX    TMP DP  RH WIND       PRES   REMARKS
BOSTON         CLOUDY    48  42  80 S8        29.99F                  
BEVERLY        CLOUDY    47  40  76 S6        29.98F                  
LAWRENCE       CLOUDY    48  41  76 S6        29.99F                  
BEDFORD        CLOUDY    47  41  80 S8        29.97F                  
NORWOOD        CLOUDY    49  42  77 S7        30.00F                  
MARSHFIELD     CLOUDY    48  41  76 S5        30.00F                  
PLYMOUTH       CLOUDY    47  44  90 S7        30.00F                  
TAUNTON        CLOUDY    48  42  80 VRB3      30.01F                  
NEW BEDFORD    CLOUDY    47  45  93 S5        30.00F                  
$$

MAZALL-200800-
CAPE COD AND THE ISLANDS
  
CITY           SKY/WX    TMP DP  RH WIND       PRES   REMARKS
FALMOUTH       CLOUDY    46  45  93 S9        30.01F                  
HYANNIS        CLOUDY    46  43  89 S6        30.01S                  
CHATHAM        CLOUDY    46  41  82 S5        30.02F                  
PROVINCETOWN   CLOUDY    46  44  93 S8        30.02F                  
NANTUCKET      CLOUDY    45  44  97 SE7       30.02F FOG              
MARTHAS VNYRD  CLOUDY    46  43  89 S6        30.01F                  
$$
 
MAZALL-200800-
CENTRAL AND WESTERN MASSACHUSETTS
  
CITY           SKY/WX    TMP DP  RH WIND       PRES   REMARKS
WORCESTER      CLOUDY    44  41  89 SW8       29.97F                  
FITCHBURG      CLOUDY    49  40  71 S7        29.98F                  
ORANGE         CLOUDY    47  43  86 S6        29.98F                  
SPRINGFIELD    CLOUDY    47  45  93 S9        29.96F                  
WESTFIELD      CLOUDY    46  44  93 S7        29.98F FOG              
NORTH ADAMS    LGT RAIN  50  45  83 E5        29.94F                  
PITTSFIELD     RAIN      46  43  89 SW8       29.94F FOG              
$$
 
RIZALL-200800-
RHODE ISLAND
  
CITY           SKY/WX    TMP DP  RH WIND       PRES   REMARKS
PROVIDENCE     CLOUDY    45  45 100 SW3       30.02F FOG              
NEWPORT        CLOUDY    44  43  96 S5        30.01S                  
BLOCK ISLAND   CLOUDY    44  43  96 S8        30.02F                  
SMITHFIELD     CLOUDY    45  45 100 VRB3      30.00F                  
WESTERLY       CLOUDY    45  43  93 S3        30.01S                  
$$
 
CTZALL-200800-
CONNECTICUT
  
CITY           SKY/WX    TMP DP  RH WIND       PRES   REMARKS
BRADLEY INTL   DRIZZLE   48  45  89 S6        30.00F FOG              
HARTFORD       CLOUDY    47  45  93 S7        30.00F                  
PLAINVILLE     CLOUDY    47  47 100 S3        29.99F                  
BRIDGEPORT     CLOUDY    48  45  89 S6        30.00F                  
DANBURY        CLOUDY    49  46  90 W3        30.00F                  
GROTON         CLOUDY    47  46  97 S3        30.01F                  
NEW HAVEN      CLOUDY    49  46  90 S6        30.01F FOG              
CHESTER        CLOUDY    46  46 100 S3        30.00F                  
MERIDEN        CLOUDY    47  43  86 S5        30.00F                  
WILLIMANTIC    CLOUDY    46  43  89 S5        30.00F                  
OXFORD         LGT RAIN  45  45 100 CALM      30.00S VSB 1/2          
$$

MEZ002-015-021-024-NHZ003-005-008-011-012-014-VTZ005-008-200800-
NORTHERN NEW ENGLAND
  
CITY           SKY/WX    TMP DP  RH WIND       PRES   REMARKS
PORTLAND ME    CLOUDY    46  40  79 S9G20     29.97F                  
BANGOR ME      CLOUDY    46  36  68 S10       29.95F                  
CONCORD NH     CLOUDY    48  38  68 S6        29.95F                  
MANCHESTER NH  CLOUDY    49  37  63 S9        29.95F                  
NASHUA NH      CLOUDY    49  42  77 CALM      29.98F                  
PORTSMOUTH NH  CLOUDY    49  36  60 S7        29.97F                  
JAFFREY NH     CLOUDY    47  41  80 VRB3      29.96F                  
KEENE NH       CLOUDY    48  43  82 SW10      29.96F                  
BURLINGTON VT  CLOUDY    52  43  71 SW5       29.88F                  
MT. WASHINGTON FOG       30  30 100 W41         N/A  VSB 0   WCI  13  
$$

NYZ052-076-200800-
EASTERN NEW YORK
  
CITY           SKY/WX    TMP DP  RH WIND       PRES   REMARKS
ALBANY         CLOUDY    52  44  74 S12G20    29.94F                  
NEW YORK CITY  CLOUDY    49  43  80 S7        29.99F                  
$$
 
ANZALL-200800-
MARINE OBSERVATIONS
  
STATION/POSITION TIME  TEMP    WIND        PRES    VSBY  WAVE
                       AIR SEA DIR/SP/G                  HT/PER
                 (UTC) (F)     (DEG/KT/KT) (MB)    (MI)  (FT/S)
BOSTON BUOY      0650   46     170/ 10/ 10 1015.7F         2/10
BUZZARDS BAY     0600   45     160/  8/  8 1017.2F
NANTUCKET SOUND  0650   47 47  170/ 10/ 12 1016.0F         1
MASS BAY-STELLWA 0504   46 45  180/ 10/ 14 1017.3F  1 7/8  2/ 4
ISLE OF SHOALS   0600   47     180/ 19/ 20 1015.2F
S OF BLOCK IS    0656      44                N/A           5/ 8
$$

......................KEY.........................
  SKY/WX - SKY CONDITION/PRESENT WEATHER
  TMP    - TEMPERATURE IN FAHRENHEIT
  DWPT   - DEWPOINT IN FAHRENHEIT
  RH     - RELATIVE HUMIDITY IN PERCENT
  WIND   - DIRECTION AND SPEED IN MPH
  PRES   - MEAN SEA LEVEL PRESSURE IN INCHES OF HG
  WCI    - WIND CHILL INDEX
  VSB    - VISIBILITY IN MILES
  HX     - HEAT INDEX
  TC     - TEMPERATURE IN CELSIUS
  VRB    - VARIABLE WIND DIRECTION
  N/A    - NOT AVAILABLE
  
      

Other recent Regional Weather Roundups

Mon Apr 22, 9:10am EDT

Mon Apr 22, 8:10am EDT

Mon Apr 22, 7:10am EDT

Mon Apr 22, 6:10am EDT

Mon Apr 22, 5:10am EDT

Mon Apr 22, 4:10am EDT

Mon Apr 22, 3:10am EDT

Mon Apr 22, 2:10am EDT

Mon Apr 22, 1:10am EDT

Mon Apr 22, 12:10am EDT

Sun Apr 21, 11:10pm EDT

Sun Apr 21, 10:10pm EDT

Sun Apr 21, 9:10pm EDT

Sun Apr 21, 8:10pm EDT

Sun Apr 21, 7:10pm EDT

Sun Apr 21, 6:10pm EDT

Sun Apr 21, 5:10pm EDT

Sun Apr 21, 4:10pm EDT

Sun Apr 21, 3:10pm EDT

Sun Apr 21, 2:10pm EDT

Sun Apr 21, 1:10pm EDT

Sun Apr 21, 12:10pm EDT

Sun Apr 21, 11:10am EDT

Sun Apr 21, 10:10am EDT

Sun Apr 21, 9:10am EDT

Sun Apr 21, 8:10am EDT

Sun Apr 21, 7:10am EDT

Sun Apr 21, 6:10am EDT

Sun Apr 21, 5:10am EDT

Sun Apr 21, 4:10am EDT

Sun Apr 21, 3:10am EDT

Sun Apr 21, 2:10am EDT

Sun Apr 21, 1:10am EDT

Sun Apr 21, 12:10am EDT

Sat Apr 20, 11:10pm EDT

Sat Apr 20, 10:10pm EDT

Sat Apr 20, 9:10pm EDT

Sat Apr 20, 8:10pm EDT

Sat Apr 20, 7:10pm EDT

Sat Apr 20, 6:10pm EDT

Sat Apr 20, 5:10pm EDT

Sat Apr 20, 4:10pm EDT

Sat Apr 20, 3:10pm EDT

Sat Apr 20, 2:10pm EDT

Sat Apr 20, 1:10pm EDT

Sat Apr 20, 12:10pm EDT

Sat Apr 20, 11:10am EDT

Sat Apr 20, 10:10am EDT

Sat Apr 20, 9:10am EDT

Sat Apr 20, 8:10am EDT

Sat Apr 20, 7:10am EDT

Sat Apr 20, 6:10am EDT

Sat Apr 20, 5:10am EDT

Sat Apr 20, 4:10am EDT

Sat Apr 20, 2:10am EDT

Sat Apr 20, 1:10am EDT

Sat Apr 20, 12:10am EDT

Fri Apr 19, 11:10pm EDT

Fri Apr 19, 10:10pm EDT

Fri Apr 19, 9:10pm EDT

Fri Apr 19, 8:10pm EDT

Fri Apr 19, 7:10pm EDT

Fri Apr 19, 6:10pm EDT

Fri Apr 19, 5:10pm EDT

Fri Apr 19, 4:10pm EDT

Fri Apr 19, 3:10pm EDT

Fri Apr 19, 2:10pm EDT

Fri Apr 19, 1:10pm EDT

Fri Apr 19, 12:10pm EDT

Fri Apr 19, 11:10am EDT

Fri Apr 19, 10:10am EDT

Fri Apr 19, 9:10am EDT

Fri Apr 19, 8:10am EDT

Fri Apr 19, 7:10am EDT

Fri Apr 19, 6:10am EDT

Fri Apr 19, 5:10am EDT

Fri Apr 19, 4:10am EDT

Fri Apr 19, 3:10am EDT

Fri Apr 19, 2:10am EDT

Fri Apr 19, 1:10am EDT

Fri Apr 19, 12:10am EDT

Thu Apr 18, 11:10pm EDT

Thu Apr 18, 10:10pm EDT

Thu Apr 18, 9:10pm EDT

Thu Apr 18, 8:10pm EDT

Thu Apr 18, 7:10pm EDT

Thu Apr 18, 6:10pm EDT

Thu Apr 18, 5:10pm EDT

Thu Apr 18, 4:10pm EDT

Thu Apr 18, 3:10pm EDT

Thu Apr 18, 2:10pm EDT

Thu Apr 18, 1:10pm EDT

Thu Apr 18, 12:10pm EDT

Thu Apr 18, 11:10am EDT

Thu Apr 18, 10:10am EDT

Thu Apr 18, 9:10am EDT

Thu Apr 18, 8:10am EDT

Thu Apr 18, 7:10am EDT

Thu Apr 18, 6:10am EDT

Thu Apr 18, 5:10am EDT

Thu Apr 18, 4:10am EDT

Thu Apr 18, 3:10am EDT

Thu Apr 18, 2:10am EDT

Thu Apr 18, 1:10am EDT

Thu Apr 18, 12:10am EDT

Wed Apr 17, 11:10pm EDT

Wed Apr 17, 10:10pm EDT

Wed Apr 17, 9:10pm EDT

Wed Apr 17, 8:10pm EDT

Wed Apr 17, 7:10pm EDT

Wed Apr 17, 6:10pm EDT

Wed Apr 17, 5:10pm EDT

Wed Apr 17, 4:10pm EDT

Wed Apr 17, 3:10pm EDT

Wed Apr 17, 2:10pm EDT

Wed Apr 17, 1:10pm EDT

Wed Apr 17, 12:10pm EDT

Wed Apr 17, 11:10am EDT

Wed Apr 17, 10:10am EDT

Wed Apr 17, 9:10am EDT

Wed Apr 17, 8:10am EDT

Wed Apr 17, 7:10am EDT

Wed Apr 17, 6:10am EDT

Wed Apr 17, 5:10am EDT

Wed Apr 17, 4:10am EDT

Wed Apr 17, 3:10am EDT

Wed Apr 17, 2:10am EDT

Wed Apr 17, 1:10am EDT

Wed Apr 17, 12:10am EDT

Tue Apr 16, 11:10pm EDT

Tue Apr 16, 10:10pm EDT

Tue Apr 16, 9:10pm EDT

Tue Apr 16, 8:10pm EDT

Tue Apr 16, 7:10pm EDT

Tue Apr 16, 6:10pm EDT

Tue Apr 16, 5:10pm EDT

Tue Apr 16, 4:10pm EDT

Tue Apr 16, 3:10pm EDT

Tue Apr 16, 2:10pm EDT

Tue Apr 16, 1:10pm EDT

Tue Apr 16, 12:10pm EDT

Tue Apr 16, 11:10am EDT

Tue Apr 16, 10:10am EDT

Tue Apr 16, 9:10am EDT

Tue Apr 16, 8:10am EDT

Tue Apr 16, 7:10am EDT

Tue Apr 16, 6:10am EDT

Tue Apr 16, 5:10am EDT

Tue Apr 16, 4:10am EDT

Tue Apr 16, 3:10am EDT

Tue Apr 16, 2:10am EDT

Tue Apr 16, 1:10am EDT

Tue Apr 16, 12:10am EDT

Mon Apr 15, 11:10pm EDT

Mon Apr 15, 10:10pm EDT

Mon Apr 15, 9:10pm EDT

Mon Apr 15, 8:10pm EDT

Mon Apr 15, 7:10pm EDT

Mon Apr 15, 6:10pm EDT

Mon Apr 15, 5:10pm EDT

Mon Apr 15, 4:10pm EDT

Mon Apr 15, 3:10pm EDT

Mon Apr 15, 2:10pm EDT

Mon Apr 15, 1:10pm EDT

Mon Apr 15, 12:10pm EDT

Mon Apr 15, 11:10am EDT

Mon Apr 15, 10:10am EDT